This is the latest recevied weather packets stored in our database for station/object NO4D. If no packets are shown the sender has not sent any weather packets the latest 1 day(s).
| Time | Temp. | Humidity | Pressure | Rain* | Wind** | Luminosity | Snow |
|---|---|---|---|---|---|---|---|
| 1778085355 | 21.11° C | 82% | 1015.9 hPa | 0 mm | 1.34 m/s, 266° | 223 W/m² | - |
| 1778085052 | 21.11° C | 82% | 1015.9 hPa | 0 mm | 1.79 m/s, 219° | 145 W/m² | - |
| 1778084748 | 21.11° C | 80% | 1015.7 hPa | 0 mm | 2.24 m/s, 239° | 186 W/m² | - |
| 1778084445 | 21.11° C | 79% | 1015.2 hPa | 0 mm | 1.34 m/s, 221° | 227 W/m² | - |
| 1778084143 | 21.67° C | 77% | 1014.8 hPa | 0 mm | 0.45 m/s, 212° | 153 W/m² | - |
| 1778083839 | 21.67° C | 75% | 1015.5 hPa | 0 mm | 1.79 m/s, 174° | 136 W/m² | - |
| 1778083537 | 21.67° C | 74% | 1015.7 hPa | 0 mm | 2.24 m/s, 233° | 115 W/m² | - |
| 1778083234 | 21.67° C | 74% | 1015.4 hPa | 0 mm | 2.68 m/s, 209° | 162 W/m² | - |
| 1778082932 | 21.67° C | 74% | 1015.1 hPa | 0 mm | 2.68 m/s, 225° | 225 W/m² | - |
| 1778081823 | 21.67° C | 73% | 1015.1 hPa | 0 mm | 3.13 m/s, 263° | 294 W/m² | - |
| 1778081521 | 21.67° C | 73% | 1015.1 hPa | 0 mm | 1.79 m/s, 189° | 145 W/m² | - |
| 1778081218 | 21.67° C | 73% | 1015 hPa | 0 mm | 1.34 m/s, 199° | 137 W/m² | - |
| 1778080915 | 22.22° C | 73% | 1015.2 hPa | 0 mm | 2.24 m/s, 197° | 197 W/m² | - |
| 1778080614 | 21.67° C | 73% | 1015 hPa | 0 mm | 1.34 m/s, 189° | 242 W/m² | - |
| 1778080310 | 21.67° C | 73% | 1014.9 hPa | 0 mm | 0.45 m/s, 195° | 340 W/m² | - |
| 1778080007 | 22.22° C | 73% | 1015 hPa | 0 mm | 2.24 m/s, 200° | 324 W/m² | - |
| 1778079704 | 21.67° C | 74% | 1015 hPa | 0 mm | 1.34 m/s, 201° | 280 W/m² | - |
| 1778079401 | 21.67° C | 75% | 1015.1 hPa | 0 mm | 1.79 m/s, 168° | 262 W/m² | - |
| 1778079097 | 21.67° C | 75% | 1014.9 hPa | 0 mm | 1.79 m/s, 231° | 238 W/m² | - |
| 1778078795 | 21.11° C | 76% | 1015 hPa | 0 mm | 1.34 m/s, 193° | 185 W/m² | - |
| 1778078504 | 21.11° C | 76% | 1014.7 hPa | 0 mm | 2.24 m/s, 226° | 223 W/m² | - |
| 1778078189 | 20.56° C | 76% | 1014.7 hPa | 0 mm | 1.79 m/s, 234° | 261 W/m² | - |
| 1778077887 | 21.11° C | 76% | 1014.8 hPa | 0 mm | 1.34 m/s, 208° | 283 W/m² | - |
| 1778077585 | 20.56° C | 77% | 1014.6 hPa | 0 mm | 2.24 m/s, 219° | 267 W/m² | - |
| 1778077283 | 20.56° C | 77% | 1014.5 hPa | 0 mm | 2.24 m/s, 279° | 252 W/m² | - |
* Rain latest hour (hover to see other rain measurements)
** Current wind speed in m/s (hover to see current wind gust speed)